TimeCDT,TemperatureF,Dew PointF,Humidity,Sea Level PressureIn,VisibilityMPH,Wind Direction,Wind SpeedMPH,Gust SpeedMPH,PrecipitationIn,Events,Conditions,WindDirDegrees,DateUTC
12:53 AM,54.0,44.1,69,30.13,10.0,SSE,4.6,-,N/A,,Clear,150,2013-04-23 05:53:00
1:53 AM,52.0,45.0,77,30.12,10.0,Calm,Calm,-,N/A,,Clear,0,2013-04-23 06:53:00
2:53 AM,50.0,45.0,83,30.10,10.0,Calm,Calm,-,N/A,,Partly Cloudy,0,2013-04-23 07:53:00
3:53 AM,48.9,44.1,83,30.08,10.0,South,5.8,-,N/A,,Scattered Clouds,180,2013-04-23 08:53:00
4:53 AM,55.4,46.4,72,30.10,10.0,South,8.1,-,N/A,,Scattered Clouds,170,2013-04-23 09:53:00
5:53 AM,55.0,46.0,72,30.11,10.0,South,8.1,-,N/A,,Scattered Clouds,170,2013-04-23 10:53:00
6:53 AM,55.0,46.0,72,30.12,10.0,South,5.8,-,N/A,,Mostly Cloudy,180,2013-04-23 11:53:00
7:53 AM,57.9,44.1,60,30.15,10.0,South,11.5,-,N/A,,Scattered Clouds,180,2013-04-23 12:53:00
8:53 AM,60.1,42.1,51,30.14,10.0,South,13.8,21.9,N/A,,Mostly Cloudy,170,2013-04-23 13:53:00
9:53 AM,64.9,44.1,47,30.13,10.0,South,18.4,26.5,N/A,,Mostly Cloudy,170,2013-04-23 14:53:00
10:53 AM,69.1,46.0,44,30.13,10.0,SSW,17.3,28.8,N/A,,Mostly Cloudy,210,2013-04-23 15:53:00
11:53 AM,70.0,46.9,44,30.11,10.0,SSW,17.3,24.2,N/A,,Overcast,200,2013-04-23 16:53:00
12:53 PM,71.1,48.0,44,30.10,10.0,South,16.1,23.0,N/A,,Overcast,190,2013-04-23 17:53:00
1:53 PM,73.9,50.0,43,30.07,10.0,South,16.1,20.7,N/A,,Mostly Cloudy,170,2013-04-23 18:53:00
2:53 PM,73.0,50.0,44,30.03,10.0,South,16.1,20.7,N/A,,Mostly Cloudy,190,2013-04-23 19:53:00
3:53 PM,73.9,50.0,43,30.00,10.0,South,17.3,24.2,N/A,,Mostly Cloudy,180,2013-04-23 20:53:00
4:53 PM,73.0,50.0,44,29.99,10.0,SSW,15.0,-,N/A,,Mostly Cloudy,200,2013-04-23 21:53:00
5:53 PM,73.0,50.0,44,29.98,10.0,South,12.7,23.0,N/A,,Mostly Cloudy,190,2013-04-23 22:53:00
6:53 PM,71.1,50.0,47,29.97,10.0,SSW,10.4,17.3,N/A,,Mostly Cloudy,210,2013-04-23 23:53:00
7:53 PM,68.0,51.1,55,29.97,10.0,South,11.5,-,N/A,,Mostly Cloudy,190,2013-04-24 00:53:00
8:53 PM,66.9,51.1,57,29.99,10.0,South,8.1,-,N/A,,Mostly Cloudy,180,2013-04-24 01:53:00
9:53 PM,64.0,51.1,63,29.99,10.0,South,5.8,-,N/A,,Mostly Cloudy,170,2013-04-24 02:53:00
10:53 PM,66.9,52.0,59,29.99,10.0,South,11.5,-,N/A,,Mostly Cloudy,180,2013-04-24 03:53:00
11:53 PM,66.9,52.0,59,29.97,10.0,South,12.7,-,N/A,,Overcast,190,2013-04-24 04:53:00